Tracking 29068 objects as of 19-Jul-2024
HD Live streaming from Space Station
objects crossing your sky now

ISO

Track ISO now!
ISO is classified as:


NORAD ID: 23715
Int'l Code: 1995-062A
Perigee: 708.4 km
Apogee: 69,882.0 km
Inclination: 5.4 °
Period: 1,410.7 minutes
Semi major axis: 41666 km
RCS: 3.9811 m2 (large)
Launch date: November 17, 1995
Source: European Space Agency (ESA)
Launch site: FRENCH GUIANA (FRGUI)
Your satellite tracking list
Your tracking list is empty




NASA's NSSDC Master Catalog

Two Line Element Set (TLE):
1 23715U 95062A   24200.64990104 -.00000123  00000-0 -14310-1 0  9999
2 23715   5.3535 336.9916 8300914 220.9418  33.5685  1.02076787106565
Source of the keplerian elements: AFSPC